Time,TemperatureF,DewpointF,PressureIn,WindDirection,WindDirectionDegrees,WindSpeedMPH,WindSpeedGustMPH,Humidity,HourlyPrecipIn,Conditions,Clouds,dailyrainin,SoftwareType,DateUTC
2013-02-22 00:00:00,30.0,22.2,30.32,SE,142,0.0,4.0,73,0.00,,,0.00,Weather View 32 v70,2013-02-22 05:00:00,
2013-02-22 00:05:00,30.0,22.2,30.32,SE,142,0.0,4.0,73,0.00,,,0.00,Weather View 32 v70,2013-02-22 05:05:00,
2013-02-22 00:10:00,30.2,22.3,30.33,South,184,2.0,4.0,72,0.00,,,0.00,Weather View 32 v70,2013-02-22 05:10:00,
2013-02-22 00:20:00,30.2,22.5,30.33,ESE,104,0.0,4.0,73,0.00,,,0.00,Weather View 32 v70,2013-02-22 05:20:00,
2013-02-22 00:25:00,30.2,22.3,30.34,ESE,104,0.0,4.0,72,0.00,,,0.00,Weather View 32 v70,2013-02-22 05:25:00,
2013-02-22 00:30:00,30.3,22.4,30.33,ESE,104,0.0,4.0,72,0.00,,,0.00,Weather View 32 v70,2013-02-22 05:30:00,
2013-02-22 00:35:00,30.1,22.3,30.33,ESE,104,0.0,4.0,72,0.00,,,0.00,Weather View 32 v70,2013-02-22 05:35:00,
2013-02-22 00:45:00,30.2,22.8,30.33,ESE,104,0.0,4.0,74,0.00,,,0.00,Weather View 32 v70,2013-02-22 05:45:00,
2013-02-22 00:50:00,30.2,22.7,30.33,ESE,104,0.0,4.0,73,0.00,,,0.00,Weather View 32 v70,2013-02-22 05:50:00,
2013-02-22 00:55:00,30.1,22.5,30.33,ESE,104,0.0,4.0,73,0.00,,,0.00,Weather View 32 v70,2013-02-22 05:55:00,
2013-02-22 01:00:00,30.1,22.5,30.33,ESE,104,0.0,4.0,73,0.00,,,0.00,Weather View 32 v70,2013-02-22 06:00:00,
2013-02-22 01:05:00,30.2,22.8,30.33,North,1,0.0,4.0,74,0.00,,,0.00,Weather View 32 v70,2013-02-22 06:05:00,
2013-02-22 01:15:00,30.1,22.7,30.34,North,1,0.0,3.0,74,0.00,,,0.00,Weather View 32 v70,2013-02-22 06:15:00,
2013-02-22 01:20:00,30.1,22.6,30.34,North,1,0.0,3.0,73,0.00,,,0.00,Weather View 32 v70,2013-02-22 06:20:00,
2013-02-22 01:25:00,30.1,22.6,30.34,SW,217,2.0,3.0,73,0.00,,,0.00,Weather View 32 v70,2013-02-22 06:25:00,
2013-02-22 01:30:00,30.2,22.8,30.34,SW,218,3.0,3.0,74,0.00,,,0.00,Weather View 32 v70,2013-02-22 06:30:00,
2013-02-22 01:35:00,30.1,22.9,30.35,SE,141,1.0,4.0,74,0.00,,,0.00,Weather View 32 v70,2013-02-22 06:35:00,
2013-02-22 01:45:00,30.2,23.3,30.34,SSE,150,0.0,4.0,75,0.00,,,0.00,Weather View 32 v70,2013-02-22 06:45:00,
2013-02-22 01:50:00,30.1,23.3,30.35,SSE,150,0.0,4.0,76,0.00,,,0.00,Weather View 32 v70,2013-02-22 06:50:00,
2013-02-22 02:00:00,30.0,23.4,30.35,SSE,150,0.0,4.0,76,0.00,,,0.00,Weather View 32 v70,2013-02-22 07:00:00,
2013-02-22 02:05:00,30.2,23.4,30.35,SSE,150,0.0,4.0,76,0.00,,,0.00,Weather View 32 v70,2013-02-22 07:05:00,
2013-02-22 02:15:00,30.3,23.2,30.35,SSE,150,0.0,4.0,75,0.00,,,0.00,Weather View 32 v70,2013-02-22 07:15:00,
2013-02-22 02:20:00,30.3,23.6,30.35,SSE,150,0.0,4.0,76,0.00,,,0.00,Weather View 32 v70,2013-02-22 07:20:00,
2013-02-22 02:30:00,30.1,23.9,30.35,SSE,150,0.0,4.0,77,0.00,,,0.00,Weather View 32 v70,2013-02-22 07:30:00,
2013-02-22 02:35:00,30.2,23.9,30.34,SSE,150,0.0,3.0,77,0.00,,,0.00,Weather View 32 v70,2013-02-22 07:35:00,
2013-02-22 02:40:00,30.1,23.8,30.34,SSE,150,0.0,2.0,77,0.00,,,0.00,Weather View 32 v70,2013-02-22 07:40:00,
2013-02-22 02:50:00,30.0,23.8,30.34,SSE,150,0.0,0.0,77,0.00,,,0.00,Weather View 32 v70,2013-02-22 07:50:00,
2013-02-22 02:55:00,29.9,23.8,30.35,SSE,150,0.0,0.0,78,0.00,,,0.00,Weather View 32 v70,2013-02-22 07:55:00,
2013-02-22 03:00:00,30.1,23.9,30.34,SSE,150,0.0,0.0,77,0.00,,,0.00,Weather View 32 v70,2013-02-22 08:00:00,
2013-02-22 03:06:00,30.2,23.9,30.35,SSE,150,0.0,0.0,77,0.00,,,0.00,Weather View 32 v70,2013-02-22 08:06:00,
2013-02-22 03:15:00,30.0,23.8,30.35,SSE,150,0.0,0.0,77,0.00,,,0.00,Weather View 32 v70,2013-02-22 08:15:00,
2013-02-22 03:20:00,30.0,23.6,30.35,SSE,150,0.0,0.0,77,0.00,,,0.00,Weather View 32 v70,2013-02-22 08:20:00,
2013-02-22 03:30:00,30.3,24.1,30.34,SSE,150,0.0,0.0,78,0.00,,,0.00,Weather View 32 v70,2013-02-22 08:30:00,
2013-02-22 03:35:00,30.4,24.4,30.34,SSE,150,0.0,0.0,78,0.00,,,0.00,Weather View 32 v70,2013-02-22 08:35:00,
2013-02-22 03:40:00,30.3,24.5,30.34,SSE,150,0.0,0.0,79,0.00,,,0.00,Weather View 32 v70,2013-02-22 08:40:00,
2013-02-22 03:50:00,30.1,24.4,30.34,SSE,150,0.0,0.0,79,0.00,,,0.00,Weather View 32 v70,2013-02-22 08:50:00,
2013-02-22 03:55:00,30.3,24.3,30.34,SSE,150,0.0,0.0,78,0.00,,,0.00,Weather View 32 v70,2013-02-22 08:55:00,
2013-02-22 04:00:00,30.2,24.3,30.33,SSE,150,0.0,0.0,78,0.00,,,0.00,Weather View 32 v70,2013-02-22 09:00:00,
2013-02-22 04:07:00,30.2,24.1,30.32,SSE,150,0.0,0.0,78,0.00,,,0.00,Weather View 32 v70,2013-02-22 09:07:00,
2013-02-22 04:15:00,30.2,24.2,30.30,SSE,150,0.0,0.0,78,0.00,,,0.00,Weather View 32 v70,2013-02-22 09:15:00,
2013-02-22 04:20:00,30.4,24.3,30.30,SSE,150,0.0,0.0,78,0.00,,,0.00,Weather View 32 v70,2013-02-22 09:20:00,
2013-02-22 04:30:00,30.4,24.1,30.29,NW,323,3.0,4.0,77,0.00,,,0.00,Weather View 32 v70,2013-02-22 09:30:00,
2013-02-22 04:35:00,30.3,23.9,30.29,WSW,253,2.0,4.0,77,0.00,,,0.00,Weather View 32 v70,2013-02-22 09:35:00,
2013-02-22 04:40:00,30.5,24.0,30.30,West,274,2.0,4.0,77,0.00,,,0.00,Weather View 32 v70,2013-02-22 09:40:00,
2013-02-22 04:50:00,30.5,23.1,30.31,WSW,257,2.0,7.0,74,0.00,,,0.00,Weather View 32 v70,2013-02-22 09:50:00,
2013-02-22 04:55:00,30.7,23.1,30.31,WNW,283,2.0,7.0,73,0.00,,,0.00,Weather View 32 v70,2013-02-22 09:55:00,
2013-02-22 05:00:00,30.8,23.1,30.31,West,269,2.0,7.0,73,0.00,,,0.00,Weather View 32 v70,2013-02-22 10:00:00,
2013-02-22 05:05:00,30.9,23.1,30.31,West,266,1.0,7.0,73,0.00,,,0.00,Weather View 32 v70,2013-02-22 10:05:00,
2013-02-22 05:15:00,31.3,23.1,30.31,ESE,118,1.0,7.0,71,0.00,,,0.00,Weather View 32 v70,2013-02-22 10:15:00,
2013-02-22 05:20:00,31.4,23.6,30.31,SE,127,0.0,7.0,73,0.00,,,0.00,Weather View 32 v70,2013-02-22 10:20:00,
2013-02-22 05:30:00,31.2,23.9,30.31,South,179,0.0,7.0,74,0.00,,,0.00,Weather View 32 v70,2013-02-22 10:30:00,
2013-02-22 05:35:00,31.2,24.0,30.32,South,179,0.0,7.0,75,0.00,,,0.00,Weather View 32 v70,2013-02-22 10:35:00,
2013-02-22 05:40:00,31.2,24.0,30.32,North,356,2.0,7.0,74,0.00,,,0.00,Weather View 32 v70,2013-02-22 10:40:00,
2013-02-22 05:50:00,31.1,23.9,30.32,NNE,25,1.0,5.0,74,0.00,,,0.00,Weather View 32 v70,2013-02-22 10:50:00,
2013-02-22 05:55:00,31.1,24.0,30.32,NNE,30,2.0,5.0,75,0.00,,,0.00,Weather View 32 v70,2013-02-22 10:55:00,
2013-02-22 06:05:00,30.9,23.8,30.32,NNE,32,2.0,5.0,75,0.00,,,0.00,Weather View 32 v70,2013-02-22 11:05:00,
2013-02-22 06:15:00,30.9,23.8,30.32,ESE,104,0.0,5.0,75,0.00,,,0.00,Weather View 32 v70,2013-02-22 11:15:00,
2013-02-22 06:20:00,30.9,23.9,30.32,ESE,104,0.0,5.0,75,0.00,,,0.00,Weather View 32 v70,2013-02-22 11:20:00,
2013-02-22 06:25:00,31.0,23.8,30.32,WNW,298,1.0,5.0,75,0.00,,,0.00,Weather View 32 v70,2013-02-22 11:25:00,
2013-02-22 06:30:00,31.1,23.8,30.31,WNW,293,0.0,5.0,74,0.00,,,0.00,Weather View 32 v70,2013-02-22 11:30:00,
2013-02-22 06:35:00,31.0,23.7,30.32,WNW,293,0.0,5.0,74,0.00,,,0.00,Weather View 32 v70,2013-02-22 11:35:00,
2013-02-22 06:40:00,31.0,23.8,30.32,SSW,203,0.0,5.0,74,0.00,,,0.00,Weather View 32 v70,2013-02-22 11:40:00,
2013-02-22 06:45:00,30.9,23.7,30.32,SW,228,0.0,5.0,74,0.00,,,0.00,Weather View 32 v70,2013-02-22 11:45:00,
2013-02-22 06:50:00,30.9,23.9,30.32,SW,228,0.0,4.0,75,0.00,,,0.00,Weather View 32 v70,2013-02-22 11:50:00,
2013-02-22 06:55:00,30.9,24.1,30.32,ENE,76,0.0,4.0,76,0.00,,,0.00,Weather View 32 v70,2013-02-22 11:55:00,
2013-02-22 07:00:00,31.0,24.3,30.31,ENE,76,0.0,3.0,76,0.00,,,0.00,Weather View 32 v70,2013-02-22 12:00:00,
2013-02-22 07:09:00,30.9,24.2,30.32,ENE,76,0.0,3.0,76,0.00,,,0.00,Weather View 32 v70,2013-02-22 12:09:00,
2013-02-22 07:15:00,31.1,24.6,30.31,North,3,1.0,2.0,77,0.00,,,0.00,Weather View 32 v70,2013-02-22 12:15:00,
2013-02-22 07:25:00,31.0,24.4,30.30,North,6,2.0,4.0,76,0.00,,,0.00,Weather View 32 v70,2013-02-22 12:25:00,
2013-02-22 07:30:00,30.9,24.3,30.29,North,11,3.0,5.0,76,0.00,,,0.00,Weather View 32 v70,2013-02-22 12:30:00,
2013-02-22 07:40:00,31.0,24.4,30.29,NNW,339,2.0,5.0,76,0.00,,,0.00,Weather View 32 v70,2013-02-22 12:40:00,
2013-02-22 07:45:00,31.0,24.4,30.29,North,1,1.0,5.0,76,0.00,,,0.00,Weather View 32 v70,2013-02-22 12:45:00,
2013-02-22 07:50:00,31.1,24.4,30.29,WNW,290,2.0,5.0,76,0.00,,,0.00,Weather View 32 v70,2013-02-22 12:50:00,
2013-02-22 07:55:00,31.2,24.2,30.29,NNE,15,1.0,5.0,75,0.00,,,0.00,Weather View 32 v70,2013-02-22 12:55:00,
2013-02-22 08:05:00,31.2,24.1,30.29,NW,307,2.0,5.0,75,0.00,,,0.00,Weather View 32 v70,2013-02-22 13:05:00,
2013-02-22 08:10:00,31.4,24.2,30.29,NW,307,0.0,5.0,75,0.00,,,0.00,Weather View 32 v70,2013-02-22 13:10:00,
2013-02-22 08:15:00,31.3,24.2,30.30,NW,307,2.0,5.0,75,0.00,,,0.00,Weather View 32 v70,2013-02-22 13:15:00,
2013-02-22 08:25:00,31.5,24.1,30.29,NNW,339,1.0,5.0,74,0.00,,,0.00,Weather View 32 v70,2013-02-22 13:25:00,
2013-02-22 08:30:00,31.5,24.3,30.29,WNW,302,1.0,5.0,74,0.00,,,0.00,Weather View 32 v70,2013-02-22 13:30:00,
2013-02-22 08:40:00,31.5,24.6,30.29,NNW,342,0.0,5.0,75,0.00,,,0.00,Weather View 32 v70,2013-02-22 13:40:00,
2013-02-22 08:45:00,31.5,24.5,30.30,North,356,0.0,5.0,75,0.00,,,0.00,Weather View 32 v70,2013-02-22 13:45:00,
2013-02-22 08:50:00,31.6,24.4,30.30,North,356,0.0,5.0,75,0.00,,,0.00,Weather View 32 v70,2013-02-22 13:50:00,
2013-02-22 09:00:00,31.6,24.2,30.30,North,356,0.0,5.0,74,0.00,,,0.00,Weather View 32 v70,2013-02-22 14:00:00,
2013-02-22 09:05:00,31.6,24.3,30.30,SE,128,0.0,5.0,74,0.00,,,0.00,Weather View 32 v70,2013-02-22 14:05:00,
2013-02-22 09:10:00,31.8,24.6,30.30,South,169,2.0,5.0,75,0.00,,,0.00,Weather View 32 v70,2013-02-22 14:10:00,
2013-02-22 09:20:00,31.8,24.8,30.30,SE,131,1.0,3.0,75,0.00,,,0.00,Weather View 32 v70,2013-02-22 14:20:00,
2013-02-22 09:25:00,32.0,25.0,30.30,SSE,156,0.0,3.0,75,0.00,,,0.00,Weather View 32 v70,2013-02-22 14:25:00,
2013-02-22 09:35:00,31.9,25.7,30.30,SE,138,4.0,4.0,78,0.00,,,0.00,Weather View 32 v70,2013-02-22 14:35:00,
2013-02-22 09:40:00,31.9,25.9,30.30,SSE,163,1.0,4.0,78,0.00,,,0.00,Weather View 32 v70,2013-02-22 14:40:00,
2013-02-22 09:45:00,32.0,26.2,30.30,South,172,3.0,5.0,79,0.00,,,0.00,Weather View 32 v70,2013-02-22 14:45:00,
2013-02-22 09:55:00,31.6,26.4,30.30,South,173,2.0,7.0,81,0.00,,,0.00,Weather View 32 v70,2013-02-22 14:55:00,
2013-02-22 10:00:00,31.7,26.8,30.30,South,181,4.0,7.0,82,0.00,,,0.00,Weather View 32 v70,2013-02-22 15:00:00,
2013-02-22 10:10:00,31.7,26.9,30.30,SW,215,6.0,7.0,82,0.00,,,0.00,Weather View 32 v70,2013-02-22 15:10:00,
2013-02-22 10:15:00,31.5,27.0,30.30,SSE,158,6.0,9.0,83,0.00,,,0.00,Weather View 32 v70,2013-02-22 15:15:00,
2013-02-22 10:20:00,31.5,27.5,30.30,South,181,5.0,9.0,85,0.00,,,0.00,Weather View 32 v70,2013-02-22 15:20:00,
2013-02-22 10:30:00,31.3,27.8,30.29,SSW,210,4.0,9.0,87,0.00,,,0.00,Weather View 32 v70,2013-02-22 15:30:00,
2013-02-22 10:35:00,31.5,28.3,30.29,SSW,210,3.0,9.0,88,0.00,,,0.00,Weather View 32 v70,2013-02-22 15:35:00,
2013-02-22 10:40:00,31.4,28.4,30.30,SE,136,2.0,9.0,88,0.00,,,0.00,Weather View 32 v70,2013-02-22 15:40:00,
2013-02-22 10:50:00,31.7,29.1,30.29,South,183,3.0,9.0,90,0.01,,,0.01,Weather View 32 v70,2013-02-22 15:50:00,
2013-02-22 10:55:00,31.8,29.3,30.29,SW,222,2.0,9.0,90,0.01,,,0.01,Weather View 32 v70,2013-02-22 15:55:00,
2013-02-22 11:00:00,31.7,29.4,30.29,SSW,203,2.0,9.0,91,0.01,,,0.01,Weather View 32 v70,2013-02-22 16:00:00,
2013-02-22 11:10:00,31.9,29.8,30.29,SSW,195,2.0,9.0,92,0.01,,,0.01,Weather View 32 v70,2013-02-22 16:10:00,
2013-02-22 11:15:00,31.8,29.8,30.29,SSW,212,5.0,8.0,92,0.01,,,0.01,Weather View 32 v70,2013-02-22 16:15:00,
2013-02-22 11:20:00,32.0,30.2,30.29,SSW,212,4.0,8.0,93,0.01,,,0.01,Weather View 32 v70,2013-02-22 16:20:00,
2013-02-22 11:30:00,32.2,30.6,30.29,SSW,212,9.0,11.0,94,0.01,,,0.01,Weather View 32 v70,2013-02-22 16:30:00,
2013-02-22 11:35:00,32.1,30.2,30.28,SSW,197,6.0,11.0,93,0.01,,,0.01,Weather View 32 v70,2013-02-22 16:35:00,
2013-02-22 11:40:00,32.1,30.2,30.28,South,176,4.0,11.0,93,0.01,,,0.01,Weather View 32 v70,2013-02-22 16:40:00,
2013-02-22 11:50:00,32.3,30.2,30.28,South,181,7.0,11.0,92,0.00,,,0.01,Weather View 32 v70,2013-02-22 16:50:00,
2013-02-22 11:55:00,32.4,30.2,30.27,SSW,193,5.0,11.0,92,0.00,,,0.01,Weather View 32 v70,2013-02-22 16:55:00,
2013-02-22 12:05:00,32.7,30.3,30.27,SSW,208,5.0,11.0,91,0.01,,,0.02,Weather View 32 v70,2013-02-22 17:05:00,
2013-02-22 12:10:00,32.9,30.4,30.27,SSW,198,4.0,11.0,90,0.01,,,0.02,Weather View 32 v70,2013-02-22 17:10:00,
2013-02-22 12:15:00,32.9,30.4,30.27,South,179,5.0,11.0,90,0.01,,,0.02,Weather View 32 v70,2013-02-22 17:15:00,
2013-02-22 12:20:00,33.1,30.5,30.27,SSE,159,4.0,11.0,90,0.01,,,0.02,Weather View 32 v70,2013-02-22 17:20:00,
2013-02-22 12:30:00,33.4,30.6,30.26,South,183,4.0,11.0,90,0.01,,,0.02,Weather View 32 v70,2013-02-22 17:30:00,
2013-02-22 12:35:00,33.5,30.7,30.26,SSW,205,0.0,11.0,89,0.01,,,0.02,Weather View 32 v70,2013-02-22 17:35:00,
2013-02-22 12:40:00,33.8,31.0,30.26,ESE,103,3.0,11.0,89,0.01,,,0.02,Weather View 32 v70,2013-02-22 17:40:00,
2013-02-22 12:50:00,33.8,30.6,30.26,South,170,6.0,10.0,88,0.01,,,0.02,Weather View 32 v70,2013-02-22 17:50:00,
2013-02-22 12:55:00,33.9,30.7,30.26,SSE,155,3.0,9.0,88,0.01,,,0.02,Weather View 32 v70,2013-02-22 17:55:00,
2013-02-22 13:00:00,34.0,30.8,30.26,SSW,194,3.0,9.0,88,0.01,,,0.02,Weather View 32 v70,2013-02-22 18:00:00,
2013-02-22 13:10:00,34.1,30.8,30.25,South,179,3.0,8.0,88,0.00,,,0.02,Weather View 32 v70,2013-02-22 18:10:00,
2013-02-22 13:15:00,34.1,30.7,30.24,SE,139,3.0,8.0,87,0.00,,,0.02,Weather View 32 v70,2013-02-22 18:15:00,
2013-02-22 13:20:00,34.3,30.9,30.24,SW,225,3.0,8.0,87,0.00,,,0.02,Weather View 32 v70,2013-02-22 18:20:00,
2013-02-22 13:30:00,34.5,30.9,30.24,SSE,158,1.0,8.0,87,0.00,,,0.02,Weather View 32 v70,2013-02-22 18:30:00,
2013-02-22 13:35:00,34.9,31.4,30.24,SE,146,4.0,8.0,87,0.00,,,0.02,Weather View 32 v70,2013-02-22 18:35:00,
2013-02-22 13:40:00,35.0,31.3,30.24,SSW,204,1.0,8.0,86,0.00,,,0.02,Weather View 32 v70,2013-02-22 18:40:00,
2013-02-22 13:50:00,35.0,31.3,30.23,SSE,156,7.0,9.0,86,0.00,,,0.02,Weather View 32 v70,2013-02-22 18:50:00,
2013-02-22 13:55:00,35.2,31.2,30.23,SE,139,5.0,9.0,85,0.00,,,0.02,Weather View 32 v70,2013-02-22 18:55:00,
2013-02-22 14:00:00,35.4,31.2,30.23,South,190,3.0,9.0,85,0.00,,,0.02,Weather View 32 v70,2013-02-22 19:00:00,
2013-02-22 14:10:00,35.5,31.0,30.23,SE,134,3.0,10.0,84,0.00,,,0.02,Weather View 32 v70,2013-02-22 19:10:00,
2013-02-22 14:15:00,35.5,30.8,30.23,South,181,5.0,10.0,83,0.00,,,0.02,Weather View 32 v70,2013-02-22 19:15:00,
2013-02-22 14:20:00,35.4,31.0,30.23,ESE,122,3.0,10.0,84,0.00,,,0.02,Weather View 32 v70,2013-02-22 19:20:00,
2013-02-22 14:30:00,35.6,31.2,30.22,SW,221,5.0,10.0,84,0.00,,,0.02,Weather View 32 v70,2013-02-22 19:30:00,
2013-02-22 14:35:00,35.6,31.1,30.22,South,176,2.0,10.0,83,0.00,,,0.02,Weather View 32 v70,2013-02-22 19:35:00,
2013-02-22 14:40:00,35.8,31.3,30.22,SSW,208,4.0,10.0,84,0.00,,,0.02,Weather View 32 v70,2013-02-22 19:40:00,
2013-02-22 14:50:00,35.8,31.4,30.22,SSE,149,0.0,10.0,84,0.00,,,0.02,Weather View 32 v70,2013-02-22 19:50:00,
2013-02-22 14:55:00,35.8,31.4,30.22,SSE,148,3.0,10.0,84,0.00,,,0.02,Weather View 32 v70,2013-02-22 19:55:00,
2013-02-22 15:00:00,35.9,31.4,30.21,SSE,158,4.0,10.0,83,0.00,,,0.02,Weather View 32 v70,2013-02-22 20:00:00,
2013-02-22 15:10:00,36.1,31.5,30.21,SSW,194,5.0,10.0,83,0.00,,,0.02,Weather View 32 v70,2013-02-22 20:10:00,
2013-02-22 15:15:00,36.3,31.5,30.21,SSE,156,4.0,10.0,83,0.00,,,0.02,Weather View 32 v70,2013-02-22 20:15:00,
2013-02-22 15:20:00,36.4,31.8,30.21,East,90,1.0,10.0,83,0.00,,,0.02,Weather View 32 v70,2013-02-22 20:20:00,
2013-02-22 15:30:00,36.9,31.8,30.22,ENE,59,0.0,8.0,82,0.00,,,0.02,Weather View 32 v70,2013-02-22 20:30:00,
2013-02-22 15:35:00,36.8,31.6,30.21,South,191,4.0,7.0,81,0.00,,,0.02,Weather View 32 v70,2013-02-22 20:35:00,
2013-02-22 15:40:00,37.0,31.6,30.21,SSW,200,1.0,7.0,81,0.00,,,0.02,Weather View 32 v70,2013-02-22 20:40:00,
2013-02-22 15:45:00,37.1,31.5,30.21,SW,221,3.0,7.0,80,0.00,,,0.02,Weather View 32 v70,2013-02-22 20:45:00,
2013-02-22 15:55:00,37.8,32.0,30.21,SE,145,2.0,8.0,79,0.00,,,0.02,Weather View 32 v70,2013-02-22 20:55:00,
2013-02-22 16:00:00,37.7,31.8,30.21,SSE,159,2.0,8.0,79,0.00,,,0.02,Weather View 32 v70,2013-02-22 21:00:00,
2013-02-22 16:10:00,37.6,31.9,30.21,SSW,208,4.0,8.0,80,0.00,,,0.02,Weather View 32 v70,2013-02-22 21:10:00,
2013-02-22 16:15:00,37.4,31.7,30.21,SSW,207,3.0,8.0,80,0.00,,,0.02,Weather View 32 v70,2013-02-22 21:15:00,
2013-02-22 16:20:00,37.4,31.9,30.21,WSW,238,2.0,8.0,80,0.00,,,0.02,Weather View 32 v70,2013-02-22 21:20:00,
2013-02-22 16:30:00,37.6,32.0,30.21,South,176,0.0,8.0,80,0.00,,,0.02,Weather View 32 v70,2013-02-22 21:30:00,
2013-02-22 16:35:00,37.7,32.0,30.21,SSW,204,4.0,8.0,80,0.00,,,0.02,Weather View 32 v70,2013-02-22 21:35:00,
2013-02-22 16:40:00,37.7,31.6,30.20,ESE,117,3.0,8.0,79,0.00,,,0.02,Weather View 32 v70,2013-02-22 21:40:00,
2013-02-22 16:50:00,37.6,31.3,30.20,SSE,160,5.0,8.0,78,0.00,,,0.02,Weather View 32 v70,2013-02-22 21:50:00,
2013-02-22 16:55:00,37.6,31.2,30.19,SSE,152,3.0,8.0,78,0.00,,,0.02,Weather View 32 v70,2013-02-22 21:55:00,
2013-02-22 17:00:00,37.5,31.1,30.20,SSE,162,4.0,8.0,78,0.00,,,0.02,Weather View 32 v70,2013-02-22 22:00:00,
2013-02-22 17:10:00,37.4,31.1,30.19,SW,214,1.0,8.0,78,0.00,,,0.02,Weather View 32 v70,2013-02-22 22:10:00,
2013-02-22 17:20:00,37.4,30.9,30.19,South,181,2.0,8.0,77,0.00,,,0.02,Weather View 32 v70,2013-02-22 22:20:00,
2013-02-22 17:25:00,37.2,30.6,30.19,SSE,156,3.0,8.0,77,0.00,,,0.02,Weather View 32 v70,2013-02-22 22:25:00,
2013-02-22 17:30:00,37.1,30.6,30.19,SSE,153,5.0,8.0,77,0.00,,,0.02,Weather View 32 v70,2013-02-22 22:30:00,
2013-02-22 17:35:00,37.1,30.7,30.19,East,98,2.0,8.0,77,0.00,,,0.02,Weather View 32 v70,2013-02-22 22:35:00,
2013-02-22 17:45:00,36.9,30.7,30.19,WSW,239,1.0,8.0,78,0.00,,,0.02,Weather View 32 v70,2013-02-22 22:45:00,
2013-02-22 17:55:00,36.6,30.4,30.19,East,96,2.0,8.0,78,0.00,,,0.02,Weather View 32 v70,2013-02-22 22:55:00,
2013-02-22 18:00:00,36.6,30.5,30.18,ENE,70,1.0,8.0,78,0.00,,,0.02,Weather View 32 v70,2013-02-22 23:00:00,
2013-02-22 18:05:00,36.6,30.6,30.19,West,280,2.0,8.0,79,0.00,,,0.02,Weather View 32 v70,2013-02-22 23:05:00,
2013-02-22 18:15:00,36.5,30.4,30.19,SSW,197,2.0,8.0,78,0.00,,,0.02,Weather View 32 v70,2013-02-22 23:15:00,
2013-02-22 18:25:00,36.4,30.2,30.19,SSE,150,3.0,8.0,78,0.00,,,0.02,Weather View 32 v70,2013-02-22 23:25:00,
2013-02-22 18:30:00,36.5,30.4,30.19,SE,142,2.0,7.0,78,0.00,,,0.02,Weather View 32 v70,2013-02-22 23:30:00,
2013-02-22 18:35:00,36.4,30.4,30.18,SSE,159,5.0,8.0,79,0.00,,,0.02,Weather View 32 v70,2013-02-22 23:35:00,
2013-02-22 18:40:00,36.4,30.3,30.18,East,101,1.0,8.0,78,0.00,,,0.02,Weather View 32 v70,2013-02-22 23:40:00,
2013-02-22 18:50:00,36.5,30.4,30.18,SSE,162,4.0,8.0,78,0.00,,,0.02,Weather View 32 v70,2013-02-22 23:50:00,
2013-02-22 18:55:00,36.4,30.3,30.19,ESE,108,2.0,8.0,79,0.00,,,0.02,Weather View 32 v70,2013-02-22 23:55:00,
2013-02-22 19:00:00,36.5,30.4,30.19,SW,225,2.0,8.0,79,0.00,,,0.02,Weather View 32 v70,2013-02-23 00:00:00,
2013-02-22 19:10:00,36.5,30.4,30.19,South,173,2.0,8.0,78,0.00,,,0.02,Weather View 32 v70,2013-02-23 00:10:00,
2013-02-22 19:15:00,36.4,30.2,30.19,NE,38,0.0,8.0,78,0.00,,,0.02,Weather View 32 v70,2013-02-23 00:15:00,
2013-02-22 19:20:00,36.5,30.4,30.19,South,177,3.0,8.0,78,0.00,,,0.02,Weather View 32 v70,2013-02-23 00:20:00,
2013-02-22 19:30:00,36.5,30.2,30.19,South,183,2.0,8.0,78,0.00,,,0.02,Weather View 32 v70,2013-02-23 00:30:00,
2013-02-22 19:35:00,36.5,30.3,30.19,South,173,3.0,7.0,78,0.00,,,0.02,Weather View 32 v70,2013-02-23 00:35:00,
2013-02-22 19:40:00,36.5,30.4,30.19,South,177,0.0,7.0,78,0.00,,,0.02,Weather View 32 v70,2013-02-23 00:40:00,
2013-02-22 19:50:00,36.6,30.5,30.19,SSW,200,2.0,7.0,78,0.00,,,0.02,Weather View 32 v70,2013-02-23 00:50:00,
2013-02-22 19:55:00,36.6,30.4,30.19,ESE,105,0.0,6.0,78,0.00,,,0.02,Weather View 32 v70,2013-02-23 00:55:00,
2013-02-22 20:05:00,36.4,30.2,30.18,East,86,0.0,6.0,78,0.00,,,0.02,Weather View 32 v70,2013-02-23 01:05:00,
2013-02-22 20:10:00,36.4,30.3,30.19,SSW,200,0.0,6.0,78,0.00,,,0.02,Weather View 32 v70,2013-02-23 01:10:00,
2013-02-22 20:15:00,36.4,30.4,30.18,SSW,200,0.0,6.0,79,0.00,,,0.02,Weather View 32 v70,2013-02-23 01:15:00,
2013-02-22 20:20:00,36.3,30.4,30.19,SSW,200,0.0,6.0,79,0.00,,,0.02,Weather View 32 v70,2013-02-23 01:20:00,
2013-02-22 20:30:00,36.3,30.5,30.19,SSW,200,0.0,5.0,79,0.00,,,0.02,Weather View 32 v70,2013-02-23 01:30:00,
2013-02-22 20:35:00,36.4,30.7,30.18,SSW,200,0.0,3.0,80,0.00,,,0.02,Weather View 32 v70,2013-02-23 01:35:00,
2013-02-22 20:40:00,36.3,30.7,30.18,SSW,200,0.0,3.0,80,0.00,,,0.02,Weather View 32 v70,2013-02-23 01:40:00,
2013-02-22 20:50:00,36.3,30.8,30.18,SSE,159,0.0,3.0,80,0.00,,,0.02,Weather View 32 v70,2013-02-23 01:50:00,
2013-02-22 20:55:00,36.3,30.9,30.18,SSE,159,0.0,3.0,81,0.00,,,0.02,Weather View 32 v70,2013-02-23 01:55:00,
2013-02-22 21:00:00,36.4,30.9,30.18,SSE,159,0.0,3.0,80,0.00,,,0.02,Weather View 32 v70,2013-02-23 02:00:00,
2013-02-22 21:10:00,36.4,31.0,30.18,South,173,0.0,3.0,81,0.00,,,0.02,Weather View 32 v70,2013-02-23 02:10:00,
2013-02-22 21:15:00,36.4,31.0,30.17,South,183,0.0,6.0,81,0.00,,,0.02,Weather View 32 v70,2013-02-23 02:15:00,
2013-02-22 21:20:00,36.5,31.2,30.17,SE,132,0.0,7.0,81,0.00,,,0.02,Weather View 32 v70,2013-02-23 02:20:00,
2013-02-22 21:30:00,36.5,31.1,30.17,SSE,166,5.0,7.0,81,0.00,,,0.02,Weather View 32 v70,2013-02-23 02:30:00,
2013-02-22 21:35:00,36.5,31.2,30.17,SE,125,0.0,7.0,81,0.00,,,0.02,Weather View 32 v70,2013-02-23 02:35:00,
2013-02-22 21:40:00,36.4,31.2,30.18,SE,125,0.0,7.0,81,0.00,,,0.02,Weather View 32 v70,2013-02-23 02:40:00,
2013-02-22 21:50:00,36.3,31.4,30.17,SSW,201,4.0,7.0,82,0.00,,,0.02,Weather View 32 v70,2013-02-23 02:50:00,
2013-02-22 21:55:00,36.4,31.5,30.16,South,173,2.0,7.0,82,0.00,,,0.02,Weather View 32 v70,2013-02-23 02:55:00,
2013-02-22 22:00:00,36.4,31.6,30.17,SSW,198,6.0,7.0,83,0.00,,,0.02,Weather View 32 v70,2013-02-23 03:00:00,
2013-02-22 22:10:00,36.3,31.6,30.18,South,190,6.0,8.0,83,0.00,,,0.02,Weather View 32 v70,2013-02-23 03:10:00,
2013-02-22 22:15:00,36.5,31.7,30.17,South,176,4.0,8.0,83,0.00,,,0.02,Weather View 32 v70,2013-02-23 03:15:00,
2013-02-22 22:20:00,36.5,31.6,30.17,South,186,5.0,8.0,82,0.00,,,0.02,Weather View 32 v70,2013-02-23 03:20:00,
2013-02-22 22:30:00,36.6,31.7,30.17,SSW,210,5.0,9.0,82,0.00,,,0.02,Weather View 32 v70,2013-02-23 03:30:00,
2013-02-22 22:35:00,36.7,31.8,30.17,SSW,203,4.0,9.0,82,0.00,,,0.02,Weather View 32 v70,2013-02-23 03:35:00,
2013-02-22 22:45:00,36.7,31.8,30.17,SSW,204,4.0,9.0,82,0.00,,,0.02,Weather View 32 v70,2013-02-23 03:45:00,
2013-02-22 22:50:00,36.7,31.9,30.16,SSE,162,5.0,9.0,83,0.00,,,0.02,Weather View 32 v70,2013-02-23 03:50:00,
2013-02-22 22:55:00,36.6,31.7,30.16,South,181,3.0,9.0,82,0.00,,,0.02,Weather View 32 v70,2013-02-23 03:55:00,
2013-02-22 23:05:00,36.6,31.8,30.17,South,184,2.0,9.0,83,0.00,,,0.02,Weather View 32 v70,2013-02-23 04:05:00,
2013-02-22 23:10:00,36.6,31.8,30.17,SSW,198,4.0,9.0,83,0.00,,,0.02,Weather View 32 v70,2013-02-23 04:10:00,
2013-02-22 23:18:00,36.7,32.0,30.16,South,180,1.0,9.0,83,0.00,,,0.02,Weather View 32 v70,2013-02-23 04:18:00,
2013-02-22 23:25:00,36.7,32.0,30.16,SSE,156,0.0,9.0,83,0.00,,,0.02,Weather View 32 v70,2013-02-23 04:25:00,
2013-02-22 23:35:00,36.6,31.9,30.16,WSW,238,1.0,7.0,83,0.00,,,0.02,Weather View 32 v70,2013-02-23 04:35:00,
2013-02-22 23:40:00,36.5,31.9,30.16,SSW,203,2.0,7.0,83,0.00,,,0.02,Weather View 32 v70,2013-02-23 04:40:00,
2013-02-22 23:45:00,36.6,32.0,30.16,South,177,2.0,7.0,83,0.00,,,0.02,Weather View 32 v70,2013-02-23 04:45:00,
2013-02-22 23:50:00,36.6,31.9,30.16,South,174,2.0,7.0,83,0.00,,,0.02,Weather View 32 v70,2013-02-23 04:50:00,
2013-02-22 23:55:00,36.5,31.8,30.15,SE,145,0.0,6.0,83,0.00,,,0.02,Weather View 32 v70,2013-02-23 04:55:00,